Location: Knowlton
(51.2333°N, 1.2667°E)
Time: 04:32:33
(UTC+00:00)

IRIDIUM 104 - Pass Details

Date: 18 April 2021
Orbit: 776 x 779 km, 86.4° (Epoch: 06 May)

Event Time Altitude Azimuth Distance (km) Brightness Sun altitude
Exits shadow 20:39:57 - 180° (S) 2,412 6.5 -14.8°
Reaches altitude 10° 20:40:10 10° 180° (S) 2,326 6.4 -14.9°
Maximum altitude 20:45:23 84° 92° (E) 789 4.3 -15.5°
Drops below altitude 10° 20:50:38 10° 5° (N) 2,341 7.3 -16.1°
Sets 20:52:59 0° 5° (N) 3,273 8.1 -16.4°
